THORAD DELTA 1 DEB, 42601

Orbit data source: Space-Track

THORAD DELTA 1 DEB, 42601 is space debris in SSO originally from a launch on Fri, 15 Nov 1974 UTC launched from the Air Force Western Test Range (AFWTR). Debris objects in space refer to the collection of defunct objects orbiting the Earth. Examples of debris include non-operational satellites, rocket bodies, and fragments generated from explosions, collisions, or faulty payload assembly.

Loading next visibility...
Identifier
42601, 1974-089FS
Orbit
SSO
Country
Flag of USUS
Related business
Manufacturer
Unknown
Mission
Spacecraft
Bus & Motor
Unknown
Mass
Unknown
Launch date (UTC)
1974-11-15 (52 years ago)
Launch vehicle
Unknown
Launch site
Air Force Western Test Range (AFWTR)
Object type
Payload
Rocket body
Debris
Shape & HBR
Unknown shape, 0.1 m
Radar Cross Section
Small (<0.1 m²)

Expand to show TLE details & history
Last TLE update: 1 week ago

TLE from 1 week ago
0 THORAD DELTA 1 DEB
1 42601U 74089FS  26164.19423394 -.00000362  00000-0 -76009-3 0  9993
2 42601 101.4862 137.4587 0313592 298.9031  69.1709 13.04770040988729
Epoch: 2026-06-13T04:39Z
TLE epoch observation values (Epoch: 2026-06-13T04:39:41.812Z)
Latitude
11.20199°
Longitude
163.72707°
Altitude
1,167.023 km
Speed
7.308 km/s
True Right ascension
09h 00m 39s
True Declination
11° 08' 25"
Sunlit
Object was in daylight at epoch
Visualization orbit readout
Latitude
Unknown
Longitude
Unknown
Altitude
Unknown
Speed
Unknown
Apparent Right ascension
Unknown
Apparent Declination
Unknown
Sunlit
N/A
Visualization observer readout
Local Sidereal Time
21:39:50
Azimuth
Unknown
Elevation
Unknown
Doppler factor
Unknown
Orbital elements
Apogee altitude
1,479.841 km
Perigee altitude
1,001.986 km
Semi-major axis
7,619.051 km
Eccentricity
0.03136
Inclination
101.4862°
RAAN
137.4587°
Arg. of periapsis
298.9031°
True anomaly
72.57499°
Mean anomaly
69.1709°
Eccentric anomaly
70.86841°
Mean motion
3.26356 °/min
Orbital period
110.31 mins
BSTAR
-0.00076009
Loading maneuver chart data...
Computing Atmospheric mass density...

Documentation

Showing up to 5 results
|